Location: Heidgraben
(53.7081°N, 9.6576°E)
Time: 19:58:49
(UTC+00:00)

NOSS 0 Rocket - Pass Details

Date: 05 July 2020
Orbit: 934 x 955 km, 70.0° (Epoch: 14 August)

Event Time Altitude Azimuth Distance (km) Brightness Sun altitude
Exits shadow 22:07:32 - 203° (SSW) 3,028 6.1 -11.8°
Reaches altitude 10° 22:08:34 10° 203° (SSW) 2,642 5.8 -11.8°
Maximum altitude 22:14:40 73° 120° (ESE) 982 3.9 -12.1°
Drops below altitude 10° 22:20:50 10° 37° (NE) 2,669 6.8 -12.3°
Sets 22:23:23 0° 35° (NE) 3,621 7.6 -12.4°
